Location: Boda
(47.1872°N, 9.5454°E)
Time: 18:31:17
(UTC+00:00)

COSMOS 2455 - Pass Details

Date: 14 May 2021
Orbit: 902 x 908 km, 67.1° (Epoch: 16 June)

Event Time Altitude Azimuth Distance (km) Brightness Sun altitude
Rises 00:44:08 0° 324° (NW) 3,544 6.4 -21.4°
Reaches altitude 10° 00:46:40 10° 322° (NW) 2,599 5.6 -21.2°
Maximum altitude 00:52:36 64° 242° (WSW) 1,004 2.8 -20.8°
Enters shadow 00:55:11 34° 174° (S) 1,446 3.4 -20.6°
